| time (UTC) | temp C | wind direction | speed KPH | gust KPH | rain 1hr cm | rain 24hr cm | rain mn cm | humidity % | barometer mb |
| 20260503212005 | 18 | 300 | 11.3 | 27.4 | 0.00 | 0.00 | 0.00 | 26 | 1001.9 |
| 20260503211709 | 17 | 284 | 9.7 | 19.3 | 0.00 | 0.00 | 0.00 | 24 | 1002.0 |
| 20260503211004 | 18 | 304 | 11.3 | 25.7 | 0.00 | 0.00 | 0.00 | 24 | 1001.9 |
| 20260503210005 | 18 | 272 | 8.0 | 25.7 | 0.00 | 0.00 | 0.00 | 24 | 1001.9 |
| 20260503204710 | 17 | 271 | 16.1 | 27.4 | 0.00 | 0.00 | 0.00 | 28 | 1002.1 |
| 20260503204004 | 17 | 254 | 19.3 | 29.0 | 0.00 | 0.00 | 0.00 | 27 | 1002.1 |
| 20260503203209 | 18 | 289 | 9.7 | 22.5 | 0.00 | 0.00 | 0.00 | 28 | 1002.1 |
| 20260503203004 | 18 | 326 | 11.3 | 24.1 | 0.00 | 0.00 | 0.00 | 28 | 1001.9 |
| 20260503202004 | 17 | 252 | 11.3 | 27.4 | 0.00 | 0.00 | 0.00 | 33 | 1002.3 |
| 20260503201709 | 17 | 295 | 16.1 | 22.5 | 0.00 | 0.00 | 0.00 | 32 | 1002.3 |
| 20260503201004 | 17 | 275 | 22.5 | 40.2 | 0.00 | 0.00 | 0.00 | 31 | 1002.3 |
| 20260503200004 | 18 | 263 | 12.9 | 25.7 | 0.00 | 0.00 | 0.00 | 32 | 1002.2 |
| 20260503195005 | 17 | 337 | 11.3 | 33.8 | 0.00 | 0.00 | 0.00 | 34 | 1002.1 |
| 20260503194710 | 17 | 247 | 8.0 | 9.7 | 0.00 | 0.00 | 0.00 | 32 | 1002.2 |
| 20260503194004 | 18 | 263 | 14.5 | 25.7 | 0.00 | 0.00 | 0.00 | 31 | 1002.4 |
| 20260503193004 | 17 | 279 | 11.3 | 37.0 | 0.00 | 0.00 | 0.00 | 32 | 1002.4 |
| 20260503191709 | 17 | 261 | 14.5 | 24.1 | 0.00 | 0.00 | 0.00 | 33 | 1002.6 |
| 20260503191004 | 17 | 293 | 16.1 | 35.4 | 0.00 | 0.00 | 0.00 | 35 | 1002.6 |
| 20260503185004 | 17 | 256 | 9.7 | 27.4 | 0.00 | 0.00 | 0.00 | 37 | 1002.7 |
| 20260503184710 | 17 | 268 | 11.3 | 11.3 | 0.00 | 0.00 | 0.00 | 38 | 1002.7 |
| 20260503183004 | 17 | 254 | 8.0 | 22.5 | 0.00 | 0.00 | 0.00 | 36 | 1002.8 |
| 20260503182005 | 17 | 260 | 11.3 | 27.4 | 0.00 | 0.00 | 0.00 | 39 | 1002.9 |
| 20260503181710 | 17 | 262 | 12.9 | 16.1 | 0.00 | 0.00 | 0.00 | 37 | 1003.0 |
| 20260503181005 | 17 | 273 | 3.2 | 24.1 | 0.00 | 0.00 | 0.00 | 39 | 1002.8 |
| 20260503180005 | 17 | 260 | 16.1 | 27.4 | 0.00 | 0.00 | 0.00 | 39 | 1003.2 |
| 20260503175004 | 16 | 281 | 11.3 | 29.0 | 0.00 | 0.00 | 0.00 | 40 | 1003.3 |
| 20260503174710 | 17 | 257 | 16.1 | 25.7 | 0.00 | 0.00 | 0.00 | 38 | 1003.2 |
| 20260503174004 | 17 | 318 | 6.4 | 24.1 | 0.00 | 0.00 | 0.00 | 43 | 1003.2 |
| 20260503173004 | 16 | 346 | 9.7 | 27.4 | 0.00 | 0.00 | 0.00 | 42 | 1003.3 |
| 20260503171710 | 16 | 248 | 16.1 | 24.1 | 0.00 | 0.00 | 0.00 | 44 | 1003.3 |
| 20260503151004 | 13 | 281 | 11.3 | 19.3 | 0.00 | 0.00 | 0.00 | 53 | 1004.0 |
| 20260503150210 | 13 | 268 | 14.5 | 19.3 | 0.00 | 0.00 | 0.00 | 56 | 1004.0 |
| 20260503140210 | 13 | 253 | 9.7 | 14.5 | 0.00 | 0.00 | 0.00 | 59 | 1004.1 |
| 20260503131004 | 10 | 228 | 9.7 | 14.5 | 0.00 | 0.00 | 0.00 | 75 | 1004.3 |
| 20260503130209 | 9 | 224 | 8.0 | 9.7 | 0.00 | 0.00 | 0.00 | 76 | 1004.3 |
| 20260503110209 | 7 | 206 | 3.2 | 8.0 | 0.00 | 0.00 | 0.00 | 78 | 1004.3 |
| 20260503100210 | 8 | 208 | 3.2 | 4.8 | 0.00 | 0.00 | 0.00 | 76 | 1005.0 |
| 20260503090209 | 10 | 202 | 0.0 | 4.8 | 0.00 | 0.00 | 0.00 | 72 | 1005.4 |
| 20260503081004 | 10 | 200 | 3.2 | 8.0 | 0.00 | 0.00 | 0.00 | 72 | 1006.1 |
| 20260503080209 | 10 | 214 | 1.6 | 4.8 | 0.00 | 0.00 | 0.00 | 71 | 1006.4 |
| 20260503071710 | 11 | 223 | 4.8 | 8.0 | 0.00 | 0.00 | 0.00 | 68 | 1007.2 |
| 20260503071004 | 11 | 244 | 6.4 | 14.5 | 0.00 | 0.00 | 0.00 | 70 | 1007.4 |
| 20260503070209 | 11 | 245 | 9.7 | 14.5 | 0.00 | 0.00 | 0.00 | 68 | 1007.7 |
| 20260503060210 | 12 | 258 | 8.0 | 14.5 | 0.00 | 0.00 | 0.00 | 61 | 1008.1 |
| 20260503054709 | 12 | 256 | 9.7 | 12.9 | 0.00 | 0.00 | 0.00 | 61 | 1008.2 |
| 20260503054004 | 12 | 244 | 8.0 | 11.3 | 0.00 | 0.00 | 0.00 | 64 | 1008.2 |
| 20260503053210 | 12 | 246 | 4.8 | 8.0 | 0.00 | 0.00 | 0.00 | 64 | 1008.1 |
| 20260503052004 | 12 | 254 | 9.7 | 12.9 | 0.00 | 0.00 | 0.00 | 62 | 1008.4 |
| 20260503051709 | 12 | 248 | 9.7 | 11.3 | 0.00 | 0.00 | 0.00 | 62 | 1008.3 |
| 20260503051004 | 12 | 243 | 8.0 | 12.9 | 0.00 | 0.00 | 0.00 | 62 | 1008.3 |
| 20260503050210 | 12 | 252 | 8.0 | 11.3 | 0.00 | 0.00 | 0.00 | 61 | 1008.3 |
| 20260503045004 | 12 | 241 | 14.5 | 19.3 | 0.00 | 0.00 | 0.00 | 60 | 1008.3 |
| 20260503044709 | 12 | 248 | 11.3 | 12.9 | 0.00 | 0.00 | 0.00 | 61 | 1008.3 |
| 20260503044004 | 12 | 243 | 17.7 | 32.2 | 0.00 | 0.00 | 0.00 | 60 | 1008.5 |
| 20260503043209 | 12 | 250 | 19.3 | 24.1 | 0.00 | 0.00 | 0.00 | 60 | 1008.6 |
| 20260503043003 | 12 | 241 | 17.7 | 25.7 | 0.00 | 0.00 | 0.00 | 58 | 1008.5 |
| 20260503042004 | 12 | 225 | 14.5 | 20.9 | 0.00 | 0.00 | 0.00 | 59 | 1008.8 |
| 20260503041708 | 12 | 234 | 9.7 | 11.3 | 0.00 | 0.00 | 0.00 | 57 | 1008.8 |
| 20260503040209 | 11 | 235 | 11.3 | 14.5 | 0.00 | 0.00 | 0.00 | 56 | 1008.9 |
| 20260503040004 | 11 | 231 | 9.7 | 19.3 | 0.00 | 0.00 | 0.00 | 57 | 1009.0 |
| 20260503035003 | 11 | 220 | 6.4 | 11.3 | 0.00 | 0.00 | 0.00 | 55 | 1009.0 |
| 20260503034709 | 11 | 232 | 9.7 | 11.3 | 0.00 | 0.00 | 0.00 | 55 | 1009.0 |
| 20260503034004 | 11 | 230 | 8.0 | 12.9 | 0.00 | 0.00 | 0.00 | 54 | 1009.2 |
| 20260503033209 | 11 | 243 | 9.7 | 12.9 | 0.00 | 0.00 | 0.00 | 56 | 1009.3 |
| 20260503033004 | 11 | 241 | 8.0 | 11.3 | 0.00 | 0.00 | 0.00 | 58 | 1009.4 |
| 20260503032004 | 11 | 245 | 8.0 | 11.3 | 0.00 | 0.00 | 0.00 | 54 | 1009.6 |
| 20260503031709 | 11 | 247 | 8.0 | 8.0 | 0.00 | 0.00 | 0.00 | 56 | 1009.6 |
| 20260503031003 | 11 | 219 | 6.4 | 12.9 | 0.00 | 0.00 | 0.00 | 54 | 1009.6 |
| 20260503030209 | 11 | 216 | 4.8 | 9.7 | 0.00 | 0.00 | 0.00 | 52 | 1009.7 |
| 20260503030004 | 11 | 218 | 4.8 | 9.7 | 0.00 | 0.00 | 0.00 | 54 | 1009.7 |
| 20260503025004 | 11 | 222 | 4.8 | 12.9 | 0.00 | 0.00 | 0.00 | 52 | 1009.8 |
| 20260503024709 | 11 | 213 | 4.8 | 4.8 | 0.00 | 0.00 | 0.00 | 51 | 1009.7 |
| 20260503024004 | 11 | 195 | 4.8 | 9.7 | 0.00 | 0.00 | 0.00 | 49 | 1009.7 |
| 20260503023208 | 11 | 192 | 4.8 | 4.8 | 0.00 | 0.00 | 0.00 | 49 | 1009.8 |
| 20260503023004 | 11 | 194 | 3.2 | 9.7 | 0.00 | 0.00 | 0.00 | 50 | 1009.9 |
| 20260503022003 | 11 | 198 | 3.2 | 8.0 | 0.00 | 0.00 | 0.00 | 48 | 1010.0 |
| 20260503021708 | 11 | 195 | 1.6 | 4.8 | 0.00 | 0.00 | 0.00 | 47 | 1010.0 |
| 20260503021004 | 12 | 195 | 3.2 | 4.8 | 0.00 | 0.00 | 0.00 | 47 | 1010.0 |
| 20260503020208 | 12 | 202 | 1.6 | 4.8 | 0.00 | 0.00 | 0.00 | 47 | 1010.1 |
| 20260503020004 | 12 | 202 | 1.6 | 8.0 | 0.00 | 0.00 | 0.00 | 47 | 1010.1 |
| 20260503015003 | 12 | 202 | 3.2 | 8.0 | 0.00 | 0.00 | 0.00 | 46 | 1010.1 |
| 20260503014709 | 12 | 208 | 1.6 | 4.8 | 0.00 | 0.00 | 0.00 | 46 | 1010.1 |
| 20260503014004 | 12 | 206 | 3.2 | 11.3 | 0.00 | 0.00 | 0.00 | 45 | 1010.1 |
| 20260503013208 | 12 | 211 | 3.2 | 4.8 | 0.00 | 0.00 | 0.00 | 45 | 1010.1 |
| 20260503013004 | 12 | 204 | 4.8 | 9.7 | 0.00 | 0.00 | 0.00 | 45 | 1010.1 |
| 20260503012003 | 12 | 227 | 4.8 | 9.7 | 0.00 | 0.00 | 0.00 | 46 | 1010.1 |
| 20260503011708 | 13 | 205 | 4.8 | 9.7 | 0.00 | 0.00 | 0.00 | 45 | 1010.2 |
| 20260503011004 | 13 | 217 | 4.8 | 9.7 | 0.00 | 0.00 | 0.00 | 46 | 1010.2 |
| 20260503010211 | 13 | 237 | 4.8 | 9.7 | 0.00 | 0.00 | 0.00 | 47 | 1010.2 |
| 20260503010005 | 13 | 230 | 8.0 | 12.9 | 0.00 | 0.00 | 0.00 | 45 | 1010.2 |
| 20260503005006 | 13 | 229 | 8.0 | 14.5 | 0.00 | 0.00 | 0.00 | 47 | 1010.3 |
| 20260503004711 | 13 | 222 | 9.7 | 11.3 | 0.00 | 0.00 | 0.00 | 44 | 1010.3 |
| 20260503004006 | 13 | 231 | 9.7 | 19.3 | 0.00 | 0.00 | 0.00 | 46 | 1010.4 |
| 20260503003211 | 13 | 232 | 11.3 | 16.1 | 0.00 | 0.00 | 0.00 | 44 | 1010.4 |
| 20260503003005 | 13 | 226 | 11.3 | 16.1 | 0.00 | 0.00 | 0.00 | 46 | 1010.5 |
| 20260503001710 | 13 | 229 | 9.7 | 9.7 | 0.00 | 0.00 | 0.00 | 49 | 1010.6 |
| 20260503001005 | 13 | 226 | 8.0 | 14.5 | 0.00 | 0.00 | 0.00 | 46 | 1010.7 |
| 20260503000211 | 13 | 247 | 11.3 | 14.5 | 0.00 | 0.00 | 0.00 | 45 | 1010.8 |
| 20260503000005 | 13 | 243 | 9.7 | 19.3 | 0.00 | 0.00 | 0.00 | 45 | 1010.9 |
| 20260502235005 | 13 | 241 | 19.3 | 25.7 | 0.00 | 0.00 | 0.00 | 44 | 1010.9 |
| 20260502234710 | 13 | 254 | 14.5 | 19.3 | 0.00 | 0.00 | 0.00 | 43 | 1011.0 |
| 20260502233210 | 13 | 255 | 19.3 | 22.5 | 0.00 | 0.00 | 0.00 | 42 | 1011.1 |
| 20260502233005 | 13 | 244 | 24.1 | 35.4 | 0.00 | 0.00 | 0.00 | 44 | 1011.2 |
| 20260502232006 | 14 | 237 | 19.3 | 24.1 | 0.00 | 0.00 | 0.00 | 45 | 1011.2 |
| 20260502231711 | 14 | 235 | 11.3 | 19.3 | 0.00 | 0.00 | 0.00 | 44 | 1011.2 |
| 20260502231005 | 14 | 231 | 20.9 | 32.2 | 0.00 | 0.00 | 0.00 | 42 | 1011.2 |
| 20260502230211 | 14 | 247 | 25.7 | 32.2 | 0.00 | 0.00 | 0.00 | 42 | 1011.3 |
| 20260502230005 | 14 | 232 | 20.9 | 32.2 | 0.00 | 0.00 | 0.00 | 39 | 1011.2 |
| 20260502225005 | 14 | 242 | 16.1 | 29.0 | 0.00 | 0.00 | 0.00 | 39 | 1011.4 |
| 20260502224711 | 14 | 235 | 19.3 | 19.3 | 0.00 | 0.00 | 0.00 | 41 | 1011.4 |
| 20260502224006 | 14 | 258 | 20.9 | 25.7 | 0.00 | 0.00 | 0.00 | 40 | 1011.3 |
| 20260502223210 | 14 | 243 | 14.5 | 22.5 | 0.00 | 0.00 | 0.00 | 38 | 1011.5 |
| 20260502223006 | 14 | 243 | 19.3 | 29.0 | 0.00 | 0.00 | 0.00 | 40 | 1011.5 |
| 20260502221710 | 14 | 246 | 16.1 | 25.7 | 0.00 | 0.00 | 0.00 | 36 | 1011.7 |
| 20260502221005 | 14 | 222 | 14.5 | 25.7 | 0.00 | 0.00 | 0.00 | 34 | 1011.9 |
| 20260502220211 | 13 | 261 | 12.9 | 16.1 | 0.00 | 0.00 | 0.00 | 35 | 1011.9 |
| 20260502220006 | 13 | 240 | 11.3 | 20.9 | 0.00 | 0.00 | 0.00 | 36 | 1011.9 |
| 20260502215005 | 13 | 264 | 12.9 | 20.9 | 0.00 | 0.00 | 0.00 | 37 | 1012.0 |
| 20260502214711 | 13 | 265 | 3.2 | 9.7 | 0.00 | 0.00 | 0.00 | 37 | 1012.1 |
| 20260502214005 | 13 | 232 | 16.1 | 29.0 | 0.00 | 0.00 | 0.00 | 36 | 1012.2 |